Time,TemperatureF,DewpointF,PressureIn,WindDirection,WindDirectionDegrees,WindSpeedMPH,WindSpeedGustMPH,Humidity,HourlyPrecipIn,Conditions,Clouds,dailyrainin,SoftwareType,DateUTC
2013-06-02 00:01:00,52.4,45.1,29.95,NW,318,0.0,4.0,76,0.00,,---,0.00,VWS V14.01,2013-06-02 05:01:00,
2013-06-02 00:06:00,52.3,45.0,29.95,NNE,14,1.0,6.0,76,0.00,,---,0.00,VWS V14.01,2013-06-02 05:06:00,
2013-06-02 00:11:00,52.3,45.0,29.95,North,360,1.0,6.0,76,0.00,,---,0.00,VWS V14.01,2013-06-02 05:11:00,
2013-06-02 00:16:00,52.3,45.0,29.95,NNW,333,0.0,2.0,76,0.00,,---,0.00,VWS V14.01,2013-06-02 05:16:00,
2013-06-02 00:21:00,52.3,45.0,29.95,NW,315,1.0,3.0,76,0.00,,---,0.00,VWS V14.01,2013-06-02 05:21:00,
2013-06-02 00:26:00,52.2,44.5,29.95,WNW,293,5.0,8.0,75,0.00,,---,0.00,VWS V14.01,2013-06-02 05:26:00,
2013-06-02 00:31:00,52.2,43.8,29.95,North,9,3.0,4.0,73,0.00,,---,0.00,VWS V14.01,2013-06-02 05:31:00,
2013-06-02 00:36:00,52.3,43.5,29.95,North,360,1.0,7.0,72,0.00,,---,0.00,VWS V14.01,2013-06-02 05:36:00,
2013-06-02 00:41:00,52.4,43.3,29.95,NNE,29,2.0,8.0,71,0.00,,---,0.00,VWS V14.01,2013-06-02 05:41:00,
2013-06-02 00:46:00,52.3,43.2,29.95,North,351,1.0,6.0,71,0.00,,---,0.00,VWS V14.01,2013-06-02 05:46:00,
2013-06-02 00:51:00,52.2,42.7,29.96,NNE,13,1.0,6.0,70,0.00,,---,0.00,VWS V14.01,2013-06-02 05:51:00,
2013-06-02 00:56:00,51.9,42.4,29.96,NNW,330,1.0,6.0,70,0.00,,---,0.00,VWS V14.01,2013-06-02 05:56:00,
2013-06-02 01:01:00,51.8,42.0,29.96,NNE,16,1.0,8.0,69,0.00,,---,0.00,VWS V14.01,2013-06-02 06:01:00,
2013-06-02 01:06:00,51.7,42.2,29.96,North,352,1.0,8.0,70,0.00,,---,0.00,VWS V14.01,2013-06-02 06:06:00,
2013-06-02 01:11:00,51.5,42.0,29.96,NNW,341,1.0,8.0,70,0.00,,---,0.00,VWS V14.01,2013-06-02 06:11:00,
2013-06-02 01:16:00,51.4,42.0,29.97,North,350,1.0,3.0,70,0.00,,---,0.00,VWS V14.01,2013-06-02 06:16:00,
2013-06-02 01:21:00,51.3,42.2,29.97,NNW,345,2.0,3.0,71,0.00,,---,0.00,VWS V14.01,2013-06-02 06:21:00,
2013-06-02 01:26:00,51.3,41.9,29.97,North,354,1.0,3.0,70,0.00,,---,0.00,VWS V14.01,2013-06-02 06:26:00,
2013-06-02 01:31:00,51.2,41.8,29.97,North,351,1.0,4.0,70,0.00,,---,0.00,VWS V14.01,2013-06-02 06:31:00,
2013-06-02 01:36:00,51.1,41.3,29.98,North,358,5.0,7.0,69,0.00,,---,0.00,VWS V14.01,2013-06-02 06:36:00,
2013-06-02 01:41:00,50.9,41.5,29.98,NE,36,2.0,7.0,70,0.00,,---,0.00,VWS V14.01,2013-06-02 06:41:00,
2013-06-02 01:46:00,50.8,41.4,29.98,NNE,16,0.0,8.0,70,0.00,,---,0.00,VWS V14.01,2013-06-02 06:46:00,
2013-06-02 01:51:00,50.8,41.4,29.98,NW,324,1.0,8.0,70,0.00,,---,0.00,VWS V14.01,2013-06-02 06:51:00,
2013-06-02 01:56:00,50.8,41.0,29.98,NNW,328,4.0,11.0,69,0.00,,---,0.00,VWS V14.01,2013-06-02 06:56:00,
2013-06-02 02:01:00,50.8,41.0,29.98,NE,41,1.0,10.0,69,0.00,,---,0.00,VWS V14.01,2013-06-02 07:01:00,
2013-06-02 02:06:00,50.8,41.4,29.98,NNE,17,5.0,10.0,70,0.00,,---,0.00,VWS V14.01,2013-06-02 07:06:00,
2013-06-02 02:11:00,50.7,41.3,29.98,North,353,1.0,10.0,70,0.00,,---,0.00,VWS V14.01,2013-06-02 07:11:00,
2013-06-02 02:16:00,50.7,41.3,29.98,North,359,3.0,8.0,70,0.00,,---,0.00,VWS V14.01,2013-06-02 07:16:00,
2013-06-02 02:21:00,50.6,41.6,29.98,North,9,3.0,8.0,71,0.00,,---,0.00,VWS V14.01,2013-06-02 07:21:00,
2013-06-02 02:26:00,50.6,41.6,29.98,North,356,4.0,11.0,71,0.00,,---,0.00,VWS V14.01,2013-06-02 07:26:00,
2013-06-02 02:31:00,50.6,41.6,29.99,NNE,15,1.0,5.0,71,0.00,,---,0.00,VWS V14.01,2013-06-02 07:31:00,
2013-06-02 02:36:00,50.6,41.9,29.99,North,353,1.0,8.0,72,0.00,,---,0.00,VWS V14.01,2013-06-02 07:36:00,
2013-06-02 02:41:00,50.6,41.9,29.99,North,358,2.0,8.0,72,0.00,,---,0.00,VWS V14.01,2013-06-02 07:41:00,
2013-06-02 02:46:00,50.6,41.9,29.99,North,5,2.0,7.0,72,0.00,,---,0.00,VWS V14.01,2013-06-02 07:46:00,
2013-06-02 02:51:00,50.6,42.3,29.99,NNE,13,3.0,7.0,73,0.00,,---,0.00,VWS V14.01,2013-06-02 07:51:00,
2013-06-02 02:56:00,50.5,41.8,29.99,North,5,2.0,7.0,72,0.00,,---,0.00,VWS V14.01,2013-06-02 07:56:00,
2013-06-02 03:01:00,50.5,41.8,29.99,North,7,0.0,5.0,72,0.00,,---,0.00,VWS V14.01,2013-06-02 08:01:00,
2013-06-02 03:06:00,50.5,42.2,29.99,NNW,338,2.0,5.0,73,0.00,,---,0.00,VWS V14.01,2013-06-02 08:06:00,
2013-06-02 03:10:00,50.5,42.2,29.99,NNW,331,0.0,5.0,73,0.00,,---,0.00,VWS V14.01,2013-06-02 08:10:00,
2013-06-02 03:15:00,50.5,42.2,29.99,North,3,1.0,3.0,73,0.00,,---,0.00,VWS V14.01,2013-06-02 08:15:00,
2013-06-02 03:20:00,50.5,42.5,29.99,NNE,12,1.0,5.0,74,0.00,,---,0.00,VWS V14.01,2013-06-02 08:20:00,
2013-06-02 03:25:00,50.5,42.5,29.99,NNW,341,0.0,5.0,74,0.00,,---,0.00,VWS V14.01,2013-06-02 08:25:00,
2013-06-02 03:30:00,50.4,42.4,29.99,NW,315,0.0,3.0,74,0.00,,---,0.00,VWS V14.01,2013-06-02 08:30:00,
2013-06-02 03:35:00,50.4,42.4,29.99,North,360,1.0,4.0,74,0.00,,---,0.00,VWS V14.01,2013-06-02 08:35:00,
2013-06-02 03:40:00,50.4,42.8,29.99,NNW,338,0.0,4.0,75,0.00,,---,0.00,VWS V14.01,2013-06-02 08:40:00,
2013-06-02 03:45:00,50.4,42.8,30.00,North,2,0.0,2.0,75,0.00,,---,0.00,VWS V14.01,2013-06-02 08:45:00,
2013-06-02 03:50:00,50.3,42.7,30.00,NNW,342,0.0,2.0,75,0.00,,---,0.00,VWS V14.01,2013-06-02 08:50:00,
2013-06-02 03:55:00,50.3,43.0,30.00,WNW,296,0.0,2.0,76,0.00,,---,0.00,VWS V14.01,2013-06-02 08:55:00,
2013-06-02 04:00:00,50.3,43.0,30.00,NNW,335,1.0,2.0,76,0.00,,---,0.00,VWS V14.01,2013-06-02 09:00:00,
2013-06-02 04:05:00,50.3,43.0,30.00,NNW,330,0.0,2.0,76,0.00,,---,0.00,VWS V14.01,2013-06-02 09:05:00,
2013-06-02 04:10:00,50.3,43.0,30.00,NNW,331,0.0,2.0,76,0.00,,---,0.00,VWS V14.01,2013-06-02 09:10:00,
2013-06-02 04:15:00,50.2,43.3,30.00,North,6,0.0,3.0,77,0.00,,---,0.00,VWS V14.01,2013-06-02 09:15:00,
2013-06-02 04:20:00,50.1,43.2,30.01,North,358,0.0,3.0,77,0.00,,---,0.00,VWS V14.01,2013-06-02 09:20:00,
2013-06-02 04:25:00,50.1,43.2,30.01,WNW,287,0.0,3.0,77,0.00,,---,0.00,VWS V14.01,2013-06-02 09:25:00,
2013-06-02 04:30:00,50.1,43.2,30.00,WNW,293,0.0,1.0,77,0.00,,---,0.00,VWS V14.01,2013-06-02 09:30:00,
2013-06-02 04:35:00,50.2,43.3,30.01,North,10,1.0,3.0,77,0.00,,---,0.00,VWS V14.01,2013-06-02 09:35:00,
2013-06-02 04:40:00,50.3,43.0,30.01,North,353,0.0,3.0,76,0.00,,---,0.00,VWS V14.01,2013-06-02 09:40:00,
2013-06-02 04:45:00,50.3,43.0,30.01,NNE,12,1.0,4.0,76,0.00,,---,0.00,VWS V14.01,2013-06-02 09:45:00,
2013-06-02 04:50:00,50.3,43.0,30.01,North,1,2.0,4.0,76,0.00,,---,0.00,VWS V14.01,2013-06-02 09:50:00,
2013-06-02 04:55:00,50.3,42.7,30.02,NNW,330,1.0,4.0,75,0.00,,---,0.00,VWS V14.01,2013-06-02 09:55:00,
2013-06-02 05:00:00,50.1,42.2,30.02,West,271,1.0,5.0,74,0.00,,---,0.00,VWS V14.01,2013-06-02 10:00:00,
2013-06-02 05:05:00,50.1,41.8,30.02,North,1,1.0,5.0,73,0.00,,---,0.00,VWS V14.01,2013-06-02 10:05:00,
2013-06-02 05:10:00,49.9,42.0,30.02,NNE,17,2.0,5.0,74,0.00,,---,0.00,VWS V14.01,2013-06-02 10:10:00,
2013-06-02 05:15:00,49.7,41.8,30.02,North,3,0.0,9.0,74,0.00,,---,0.00,VWS V14.01,2013-06-02 10:15:00,
2013-06-02 05:20:00,49.5,41.6,30.02,North,352,3.0,9.0,74,0.00,,---,0.00,VWS V14.01,2013-06-02 10:20:00,
2013-06-02 05:25:00,49.4,41.8,30.02,NNW,340,0.0,9.0,75,0.00,,---,0.00,VWS V14.01,2013-06-02 10:25:00,
2013-06-02 05:30:00,49.4,42.2,30.03,NNW,338,0.0,0.0,76,0.00,,---,0.00,VWS V14.01,2013-06-02 10:30:00,
2013-06-02 05:35:00,49.3,42.1,30.03,North,349,1.0,3.0,76,0.00,,---,0.00,VWS V14.01,2013-06-02 10:35:00,
2013-06-02 05:40:00,49.4,42.2,30.03,North,349,0.0,3.0,76,0.00,,---,0.00,VWS V14.01,2013-06-02 10:40:00,
2013-06-02 05:45:00,49.4,42.2,30.03,NNE,12,1.0,3.0,76,0.00,,---,0.00,VWS V14.01,2013-06-02 10:45:00,
2013-06-02 05:50:00,49.5,42.3,30.03,North,351,0.0,3.0,76,0.00,,---,0.00,VWS V14.01,2013-06-02 10:50:00,
2013-06-02 05:55:00,49.5,42.3,30.03,North,360,0.0,4.0,76,0.00,,---,0.00,VWS V14.01,2013-06-02 10:55:00,
2013-06-02 06:00:00,49.6,42.0,30.03,NNW,333,1.0,6.0,75,0.00,,---,0.00,VWS V14.01,2013-06-02 11:00:00,
2013-06-02 06:05:00,49.6,42.4,30.03,North,356,1.0,6.0,76,0.00,,---,0.00,VWS V14.01,2013-06-02 11:05:00,
2013-06-02 06:10:00,49.6,42.4,30.03,NNE,19,3.0,7.0,76,0.00,,---,0.00,VWS V14.01,2013-06-02 11:10:00,
2013-06-02 06:15:00,49.6,42.4,30.03,North,355,0.0,4.0,76,0.00,,---,0.00,VWS V14.01,2013-06-02 11:15:00,
2013-06-02 06:20:00,49.6,42.4,30.03,North,358,0.0,4.0,76,0.00,,---,0.00,VWS V14.01,2013-06-02 11:20:00,
2013-06-02 06:25:00,49.7,42.1,30.03,NE,34,0.0,5.0,75,0.00,,---,0.00,VWS V14.01,2013-06-02 11:25:00,
2013-06-02 06:30:00,49.8,42.2,30.04,North,359,2.0,4.0,75,0.00,,---,0.00,VWS V14.01,2013-06-02 11:30:00,
2013-06-02 06:35:00,49.8,41.9,30.04,WNW,295,0.0,5.0,74,0.00,,---,0.00,VWS V14.01,2013-06-02 11:35:00,
2013-06-02 06:40:00,49.9,42.0,30.04,NW,316,1.0,6.0,74,0.00,,---,0.00,VWS V14.01,2013-06-02 11:40:00,
2013-06-02 06:45:00,49.9,42.3,30.05,North,353,3.0,3.0,75,0.00,,---,0.00,VWS V14.01,2013-06-02 11:45:00,
2013-06-02 06:50:00,49.9,42.0,30.05,North,351,1.0,3.0,74,0.00,,---,0.00,VWS V14.01,2013-06-02 11:50:00,
2013-06-02 06:55:00,49.9,42.3,30.05,NNE,16,0.0,5.0,75,0.00,,---,0.00,VWS V14.01,2013-06-02 11:55:00,
2013-06-02 07:00:00,50.0,42.7,30.05,North,351,0.0,2.0,76,0.00,,---,0.00,VWS V14.01,2013-06-02 12:00:00,
2013-06-02 07:05:00,50.1,42.5,30.06,North,351,0.0,2.0,75,0.00,,---,0.00,VWS V14.01,2013-06-02 12:05:00,
2013-06-02 07:10:00,50.0,42.0,30.06,North,5,1.0,5.0,74,0.00,,---,0.00,VWS V14.01,2013-06-02 12:10:00,
2013-06-02 07:15:00,50.0,42.4,30.06,North,353,0.0,2.0,75,0.00,,---,0.00,VWS V14.01,2013-06-02 12:15:00,
2013-06-02 07:20:00,50.1,42.2,30.06,NNW,346,1.0,5.0,74,0.00,,---,0.00,VWS V14.01,2013-06-02 12:20:00,
2013-06-02 07:25:00,50.3,42.0,30.06,NNW,347,0.0,5.0,73,0.00,,---,0.00,VWS V14.01,2013-06-02 12:25:00,
2013-06-02 07:30:00,50.4,42.1,30.06,NNW,339,0.0,2.0,73,0.00,,---,0.00,VWS V14.01,2013-06-02 12:30:00,
2013-06-02 07:35:00,50.4,41.7,30.06,NNW,332,0.0,4.0,72,0.00,,---,0.00,VWS V14.01,2013-06-02 12:35:00,
2013-06-02 07:40:00,50.3,41.3,30.07,NNW,348,0.0,4.0,71,0.00,,---,0.00,VWS V14.01,2013-06-02 12:40:00,
2013-06-02 07:45:00,50.1,41.1,30.07,NNW,346,1.0,5.0,71,0.00,,---,0.00,VWS V14.01,2013-06-02 12:45:00,
2013-06-02 07:50:00,49.8,40.8,30.07,NW,308,1.0,5.0,71,0.00,,---,0.00,VWS V14.01,2013-06-02 12:50:00,
2013-06-02 07:55:00,49.5,40.5,30.07,NNW,339,2.0,6.0,71,0.00,,---,0.00,VWS V14.01,2013-06-02 12:55:00,
2013-06-02 08:00:00,49.4,40.8,30.07,NNW,346,0.0,3.0,72,0.00,,---,0.00,VWS V14.01,2013-06-02 13:00:00,
2013-06-02 08:05:00,49.7,41.0,30.08,NNW,330,1.0,4.0,72,0.00,,---,0.00,VWS V14.01,2013-06-02 13:05:00,
2013-06-02 08:10:00,50.0,41.0,30.08,North,2,1.0,5.0,71,0.00,,---,0.00,VWS V14.01,2013-06-02 13:10:00,
2013-06-02 08:15:00,50.1,40.7,30.08,North,7,2.0,7.0,70,0.00,,---,0.00,VWS V14.01,2013-06-02 13:15:00,
2013-06-02 08:20:00,50.4,41.4,30.08,North,5,2.0,7.0,71,0.00,,---,0.00,VWS V14.01,2013-06-02 13:20:00,
2013-06-02 08:25:00,50.6,41.2,30.08,ESE,107,2.0,7.0,70,0.00,,---,0.00,VWS V14.01,2013-06-02 13:25:00,
2013-06-02 08:30:00,51.2,41.4,30.08,WNW,296,1.0,3.0,69,0.00,,---,0.00,VWS V14.01,2013-06-02 13:30:00,
2013-06-02 08:35:00,51.6,41.0,30.08,North,351,1.0,6.0,67,0.00,,---,0.00,VWS V14.01,2013-06-02 13:35:00,
2013-06-02 08:40:00,52.0,41.8,30.08,NNW,333,1.0,6.0,68,0.00,,---,0.00,VWS V14.01,2013-06-02 13:40:00,
2013-06-02 08:45:00,52.8,42.5,30.09,NNW,346,2.0,4.0,68,0.00,,---,0.00,VWS V14.01,2013-06-02 13:45:00,
2013-06-02 08:50:00,53.2,41.8,30.09,North,2,1.0,5.0,65,0.00,,---,0.00,VWS V14.01,2013-06-02 13:50:00,
2013-06-02 08:55:00,53.5,42.4,30.09,North,358,1.0,5.0,66,0.00,,---,0.00,VWS V14.01,2013-06-02 13:55:00,
2013-06-02 09:00:00,54.0,42.9,30.08,North,7,1.0,3.0,66,0.00,,---,0.00,VWS V14.01,2013-06-02 14:00:00,
2013-06-02 09:05:00,54.5,42.6,30.08,NNE,14,2.0,5.0,64,0.00,,---,0.00,VWS V14.01,2013-06-02 14:05:00,
2013-06-02 09:10:00,54.5,42.2,30.08,North,360,3.0,7.0,63,0.00,,---,0.00,VWS V14.01,2013-06-02 14:10:00,
2013-06-02 09:15:00,54.7,42.8,30.08,NNE,17,3.0,4.0,64,0.00,,---,0.00,VWS V14.01,2013-06-02 14:15:00,
2013-06-02 09:20:00,55.1,43.6,30.08,North,353,2.0,5.0,65,0.00,,---,0.00,VWS V14.01,2013-06-02 14:20:00,
2013-06-02 09:25:00,55.1,43.6,30.09,North,358,2.0,5.0,65,0.00,,---,0.00,VWS V14.01,2013-06-02 14:25:00,
2013-06-02 09:30:00,55.1,43.2,30.09,North,353,1.0,2.0,64,0.00,,---,0.00,VWS V14.01,2013-06-02 14:30:00,
2013-06-02 09:35:00,54.9,42.1,30.09,NNE,13,1.0,6.0,62,0.00,,---,0.00,VWS V14.01,2013-06-02 14:35:00,
2013-06-02 09:40:00,54.7,41.5,30.09,North,350,1.0,9.0,61,0.00,,---,0.00,VWS V14.01,2013-06-02 14:40:00,
2013-06-02 09:45:00,54.9,41.7,30.09,NNW,336,1.0,7.0,61,0.00,,---,0.00,VWS V14.01,2013-06-02 14:45:00,
2013-06-02 09:50:00,55.0,41.0,30.09,North,3,3.0,8.0,59,0.00,,---,0.00,VWS V14.01,2013-06-02 14:50:00,
2013-06-02 09:55:00,54.9,41.7,30.09,NNW,346,1.0,8.0,61,0.00,,---,0.00,VWS V14.01,2013-06-02 14:55:00,
2013-06-02 10:00:00,55.0,41.8,30.10,NNW,345,2.0,7.0,61,0.00,,---,0.00,VWS V14.01,2013-06-02 15:00:00,
2013-06-02 10:05:00,55.6,42.4,30.09,NNW,341,2.0,7.0,61,0.00,,---,0.00,VWS V14.01,2013-06-02 15:05:00,
2013-06-02 10:10:00,56.7,43.0,30.09,NNW,344,2.0,7.0,60,0.00,,---,0.00,VWS V14.01,2013-06-02 15:10:00,
2013-06-02 10:15:00,57.0,41.5,30.09,North,356,3.0,4.0,56,0.00,,---,0.00,VWS V14.01,2013-06-02 15:15:00,
2013-06-02 10:20:00,56.5,41.0,30.09,NNE,31,1.0,6.0,56,0.00,,---,0.00,VWS V14.01,2013-06-02 15:20:00,
2013-06-02 10:25:00,56.6,42.0,30.09,North,353,1.0,6.0,58,0.00,,---,0.00,VWS V14.01,2013-06-02 15:25:00,
2013-06-02 10:30:00,56.7,41.7,30.09,NNW,343,1.0,8.0,57,0.00,,---,0.00,VWS V14.01,2013-06-02 15:30:00,
2013-06-02 10:35:00,56.9,41.4,30.09,North,360,1.0,10.0,56,0.00,,---,0.00,VWS V14.01,2013-06-02 15:35:00,
2013-06-02 10:40:00,56.7,41.7,30.09,North,9,8.0,10.0,57,0.00,,---,0.00,VWS V14.01,2013-06-02 15:40:00,
2013-06-02 10:45:00,57.3,42.2,30.09,NNE,26,3.0,5.0,57,0.00,,---,0.00,VWS V14.01,2013-06-02 15:45:00,
2013-06-02 10:50:00,57.2,41.2,30.09,NNE,31,2.0,5.0,55,0.00,,---,0.00,VWS V14.01,2013-06-02 15:50:00,
2013-06-02 10:55:00,57.1,41.6,30.09,North,5,2.0,5.0,56,0.00,,---,0.00,VWS V14.01,2013-06-02 15:55:00,
2013-06-02 11:00:00,57.2,41.2,30.09,North,1,2.0,4.0,55,0.00,,---,0.00,VWS V14.01,2013-06-02 16:00:00,
2013-06-02 11:05:00,57.4,41.4,30.09,North,5,1.0,4.0,55,0.00,,---,0.00,VWS V14.01,2013-06-02 16:05:00,
2013-06-02 11:10:00,58.2,42.1,30.09,NE,54,3.0,5.0,55,0.00,,---,0.00,VWS V14.01,2013-06-02 16:10:00,
2013-06-02 11:15:00,58.6,42.5,30.09,North,7,1.0,3.0,55,0.00,,---,0.00,VWS V14.01,2013-06-02 16:15:00,
2013-06-02 11:20:00,58.8,41.7,30.09,North,5,2.0,8.0,53,0.00,,---,0.00,VWS V14.01,2013-06-02 16:20:00,
2013-06-02 11:25:00,58.7,41.1,30.08,NNE,17,7.0,8.0,52,0.00,,---,0.00,VWS V14.01,2013-06-02 16:25:00,
2013-06-02 11:30:00,58.3,41.8,30.09,NW,322,1.0,7.0,54,0.00,,---,0.00,VWS V14.01,2013-06-02 16:30:00,
2013-06-02 11:35:00,59.3,43.2,30.08,West,280,2.0,7.0,55,0.00,,---,0.00,VWS V14.01,2013-06-02 16:35:00,
2013-06-02 11:40:00,60.0,42.3,30.08,NW,320,1.0,7.0,52,0.00,,---,0.00,VWS V14.01,2013-06-02 16:40:00,
2013-06-02 11:45:00,59.9,42.2,30.08,WNW,282,0.0,6.0,52,0.00,,---,0.00,VWS V14.01,2013-06-02 16:45:00,
2013-06-02 11:50:00,60.2,41.5,30.08,North,353,1.0,6.0,50,0.00,,---,0.00,VWS V14.01,2013-06-02 16:50:00,
2013-06-02 11:55:00,60.0,41.8,30.08,NNW,341,2.0,6.0,51,0.00,,---,0.00,VWS V14.01,2013-06-02 16:55:00,
2013-06-02 12:00:00,60.4,43.7,30.08,NW,311,1.0,3.0,54,0.00,,---,0.00,VWS V14.01,2013-06-02 17:00:00,
2013-06-02 12:05:00,61.5,43.2,30.08,North,358,0.0,3.0,51,0.00,,---,0.00,VWS V14.01,2013-06-02 17:05:00,
2013-06-02 12:10:00,61.7,42.9,30.08,NW,324,1.0,3.0,50,0.00,,---,0.00,VWS V14.01,2013-06-02 17:10:00,
2013-06-02 12:15:00,60.7,41.5,30.08,North,6,0.0,4.0,49,0.00,,---,0.00,VWS V14.01,2013-06-02 17:15:00,
2013-06-02 12:20:00,60.6,41.4,30.08,NNE,13,2.0,5.0,49,0.00,,---,0.00,VWS V14.01,2013-06-02 17:20:00,
2013-06-02 12:25:00,60.6,42.4,30.08,ESE,115,2.0,5.0,51,0.00,,---,0.00,VWS V14.01,2013-06-02 17:25:00,
2013-06-02 12:30:00,61.1,42.3,30.08,North,10,1.0,5.0,50,0.00,,---,0.00,VWS V14.01,2013-06-02 17:30:00,
2013-06-02 12:35:00,61.5,40.5,30.08,NNE,23,4.0,6.0,46,0.00,,---,0.00,VWS V14.01,2013-06-02 17:35:00,
2013-06-02 12:40:00,61.2,41.9,30.08,North,359,1.0,6.0,49,0.00,,---,0.00,VWS V14.01,2013-06-02 17:40:00,
2013-06-02 12:45:00,61.3,40.9,30.08,NNW,332,2.0,6.0,47,0.00,,---,0.00,VWS V14.01,2013-06-02 17:45:00,
2013-06-02 12:50:00,62.0,43.2,30.08,North,359,1.0,6.0,50,0.00,,---,0.00,VWS V14.01,2013-06-02 17:50:00,
2013-06-02 12:55:00,62.6,44.2,30.08,NNW,336,2.0,6.0,51,0.00,,---,0.00,VWS V14.01,2013-06-02 17:55:00,
2013-06-02 13:00:00,62.6,42.7,30.08,NNW,336,0.0,3.0,48,0.00,,---,0.00,VWS V14.01,2013-06-02 18:00:00,
2013-06-02 13:05:00,62.3,42.4,30.08,NNE,15,4.0,5.0,48,0.00,,---,0.00,VWS V14.01,2013-06-02 18:05:00,
2013-06-02 13:10:00,63.0,45.6,30.08,North,350,1.0,5.0,53,0.00,,---,0.00,VWS V14.01,2013-06-02 18:10:00,
2013-06-02 13:15:00,62.9,40.1,30.07,North,3,0.0,6.0,43,0.00,,---,0.00,VWS V14.01,2013-06-02 18:15:00,
2013-06-02 13:20:00,62.6,42.7,30.07,WNW,297,1.0,6.0,48,0.00,,---,0.00,VWS V14.01,2013-06-02 18:20:00,
2013-06-02 13:25:00,62.6,42.7,30.07,NNW,329,0.0,6.0,48,0.00,,---,0.00,VWS V14.01,2013-06-02 18:25:00,
2013-06-02 13:30:00,63.4,42.8,30.07,North,356,1.0,2.0,47,0.00,,---,0.00,VWS V14.01,2013-06-02 18:30:00,
2013-06-02 13:35:00,63.7,44.2,30.07,NNW,338,1.0,2.0,49,0.00,,---,0.00,VWS V14.01,2013-06-02 18:35:00,
2013-06-02 13:40:00,64.3,44.8,30.06,WNW,302,1.0,3.0,49,0.00,,---,0.00,VWS V14.01,2013-06-02 18:40:00,
2013-06-02 13:45:00,65.2,43.9,30.07,WNW,285,4.0,6.0,46,0.00,,---,0.00,VWS V14.01,2013-06-02 18:45:00,
2013-06-02 13:50:00,65.8,43.9,30.07,North,3,2.0,6.0,45,0.00,,---,0.00,VWS V14.01,2013-06-02 18:50:00,
2013-06-02 13:55:00,65.8,45.0,30.07,North,9,1.0,6.0,47,0.00,,---,0.00,VWS V14.01,2013-06-02 18:55:00,
2013-06-02 14:00:00,65.5,41.2,30.07,NNE,16,1.0,4.0,41,0.00,,---,0.00,VWS V14.01,2013-06-02 19:00:00,
2013-06-02 14:05:00,65.4,45.2,30.07,North,360,1.0,4.0,48,0.00,,---,0.00,VWS V14.01,2013-06-02 19:05:00,
2013-06-02 14:10:00,65.4,42.9,30.06,NNW,339,1.0,4.0,44,0.00,,---,0.00,VWS V14.01,2013-06-02 19:10:00,
2013-06-02 14:15:00,66.4,46.7,30.06,North,351,2.0,2.0,49,0.00,,---,0.00,VWS V14.01,2013-06-02 19:15:00,
2013-06-02 14:20:00,67.0,44.4,30.06,West,273,2.0,4.0,44,0.00,,---,0.00,VWS V14.01,2013-06-02 19:20:00,
2013-06-02 14:25:00,67.2,44.0,30.06,NNW,345,1.0,5.0,43,0.00,,---,0.00,VWS V14.01,2013-06-02 19:25:00,
2013-06-02 14:30:00,67.2,45.7,30.06,NW,315,1.0,3.0,46,0.00,,---,0.00,VWS V14.01,2013-06-02 19:30:00,
2013-06-02 14:35:00,68.1,47.7,30.06,WNW,287,0.0,3.0,48,0.00,,---,0.00,VWS V14.01,2013-06-02 19:35:00,
2013-06-02 14:40:00,68.2,47.2,30.06,NNW,342,1.0,3.0,47,0.00,,---,0.00,VWS V14.01,2013-06-02 19:40:00,
2013-06-02 14:45:00,66.9,43.7,30.06,NW,311,1.0,7.0,43,0.00,,---,0.00,VWS V14.01,2013-06-02 19:45:00,
2013-06-02 14:50:00,67.0,43.8,30.06,NNW,328,1.0,7.0,43,0.00,,---,0.00,VWS V14.01,2013-06-02 19:50:00,
2013-06-02 14:55:00,66.7,42.9,30.05,WSW,247,1.0,7.0,42,0.00,,---,0.00,VWS V14.01,2013-06-02 19:55:00,
2013-06-02 15:00:00,67.2,43.4,30.05,NW,312,2.0,4.0,42,0.00,,---,0.00,VWS V14.01,2013-06-02 20:00:00,
2013-06-02 15:05:00,67.5,43.6,30.05,North,3,1.0,4.0,42,0.00,,---,0.00,VWS V14.01,2013-06-02 20:05:00,
2013-06-02 15:10:00,68.1,45.4,30.05,NNW,344,1.0,4.0,44,0.00,,---,0.00,VWS V14.01,2013-06-02 20:10:00,
2013-06-02 15:15:00,68.4,43.8,30.05,North,8,3.0,3.0,41,0.00,,---,0.00,VWS V14.01,2013-06-02 20:15:00,
2013-06-02 15:20:00,68.4,44.4,30.05,NNW,338,0.0,3.0,42,0.00,,---,0.00,VWS V14.01,2013-06-02 20:20:00,
2013-06-02 15:25:00,68.9,46.1,30.05,WNW,293,0.0,3.0,44,0.00,,---,0.00,VWS V14.01,2013-06-02 20:25:00,
2013-06-02 15:30:00,69.3,44.0,30.05,NNW,331,2.0,4.0,40,0.00,,---,0.00,VWS V14.01,2013-06-02 20:30:00,
2013-06-02 15:35:00,68.6,44.0,30.04,NW,324,1.0,4.0,41,0.00,,---,0.00,VWS V14.01,2013-06-02 20:35:00,
2013-06-02 15:40:00,68.2,45.5,30.04,NNW,338,1.0,4.0,44,0.00,,---,0.00,VWS V14.01,2013-06-02 20:40:00,
2013-06-02 15:45:00,68.7,45.3,30.04,North,356,0.0,4.0,43,0.00,,---,0.00,VWS V14.01,2013-06-02 20:45:00,
2013-06-02 15:50:00,69.2,43.2,30.04,SSW,195,3.0,4.0,39,0.00,,---,0.00,VWS V14.01,2013-06-02 20:50:00,
2013-06-02 15:55:00,69.0,45.0,30.04,North,9,3.0,4.0,42,0.00,,---,0.00,VWS V14.01,2013-06-02 20:55:00,
2013-06-02 16:00:00,67.7,42.5,30.04,ENE,74,2.0,7.0,40,0.00,,---,0.00,VWS V14.01,2013-06-02 21:00:00,
2013-06-02 16:05:00,67.6,43.7,30.04,North,8,2.0,7.0,42,0.00,,---,0.00,VWS V14.01,2013-06-02 21:05:00,
2013-06-02 16:10:00,67.1,42.0,30.04,WNW,282,1.0,7.0,40,0.00,,---,0.00,VWS V14.01,2013-06-02 21:10:00,
2013-06-02 16:15:00,67.4,43.5,30.04,NW,326,1.0,4.0,42,0.00,,---,0.00,VWS V14.01,2013-06-02 21:15:00,
2013-06-02 16:20:00,68.4,44.4,30.04,NNW,329,1.0,4.0,42,0.00,,---,0.00,VWS V14.01,2013-06-02 21:20:00,
2013-06-02 16:25:00,69.4,45.3,30.04,NW,308,0.0,4.0,42,0.00,,---,0.00,VWS V14.01,2013-06-02 21:25:00,
2013-06-02 16:30:00,69.5,44.2,30.04,WNW,296,1.0,3.0,40,0.00,,---,0.00,VWS V14.01,2013-06-02 21:30:00,
2013-06-02 16:35:00,69.8,43.8,30.03,WNW,303,1.0,5.0,39,0.00,,---,0.00,VWS V14.01,2013-06-02 21:35:00,
2013-06-02 16:40:00,69.3,44.0,30.04,NW,318,1.0,5.0,40,0.00,,---,0.00,VWS V14.01,2013-06-02 21:40:00,
2013-06-02 16:45:00,69.9,44.5,30.03,NW,318,0.0,1.0,40,0.00,,---,0.00,VWS V14.01,2013-06-02 21:45:00,
2013-06-02 16:50:00,70.5,43.7,30.03,NNW,339,1.0,3.0,38,0.00,,---,0.00,VWS V14.01,2013-06-02 21:50:00,
2013-06-02 16:55:00,70.2,45.4,30.03,North,3,2.0,5.0,41,0.00,,---,0.00,VWS V14.01,2013-06-02 21:55:00,
2013-06-02 17:00:00,69.9,45.2,30.03,West,275,1.0,2.0,41,0.00,,---,0.00,VWS V14.01,2013-06-02 22:00:00,
2013-06-02 17:05:00,70.4,42.9,30.03,North,353,1.0,2.0,37,0.00,,---,0.00,VWS V14.01,2013-06-02 22:05:00,
2013-06-02 17:10:00,70.1,44.0,30.03,NW,312,0.0,3.0,39,0.00,,---,0.00,VWS V14.01,2013-06-02 22:10:00,
2013-06-02 17:15:00,69.9,42.5,30.03,NNW,338,1.0,4.0,37,0.00,,---,0.00,VWS V14.01,2013-06-02 22:15:00,
2013-06-02 17:20:00,69.6,43.6,30.03,WNW,299,0.0,4.0,39,0.00,,---,0.00,VWS V14.01,2013-06-02 22:20:00,
2013-06-02 17:25:00,69.9,43.2,30.03,North,356,1.0,4.0,38,0.00,,---,0.00,VWS V14.01,2013-06-02 22:25:00,
2013-06-02 17:30:00,69.7,42.3,30.03,North,360,2.0,3.0,37,0.00,,---,0.00,VWS V14.01,2013-06-02 22:30:00,
2013-06-02 17:35:00,68.9,40.9,30.02,NNW,341,2.0,4.0,36,0.00,,---,0.00,VWS V14.01,2013-06-02 22:35:00,
2013-06-02 17:40:00,67.8,45.1,30.02,NNW,337,1.0,4.0,44,0.00,,---,0.00,VWS V14.01,2013-06-02 22:40:00,
2013-06-02 17:45:00,68.5,43.2,30.02,NNW,339,1.0,1.0,40,0.00,,---,0.00,VWS V14.01,2013-06-02 22:45:00,
2013-06-02 17:50:00,68.1,44.8,30.02,North,3,0.0,3.0,43,0.00,,---,0.00,VWS V14.01,2013-06-02 22:50:00,
2013-06-02 17:55:00,68.6,42.7,30.02,NNE,16,0.0,4.0,39,0.00,,---,0.00,VWS V14.01,2013-06-02 22:55:00,
2013-06-02 18:00:00,68.9,42.3,30.02,NW,318,0.0,2.0,38,0.00,,---,0.00,VWS V14.01,2013-06-02 23:00:00,
2013-06-02 18:05:00,69.2,43.9,30.02,North,351,0.0,3.0,40,0.00,,---,0.00,VWS V14.01,2013-06-02 23:05:00,
2013-06-02 18:10:00,69.0,42.4,30.02,NNW,345,0.0,3.0,38,0.00,,---,0.00,VWS V14.01,2013-06-02 23:10:00,
2013-06-02 18:15:00,68.4,41.8,30.02,North,355,1.0,2.0,38,0.00,,---,0.00,VWS V14.01,2013-06-02 23:15:00,
2013-06-02 18:20:00,68.1,44.8,30.01,North,355,0.0,2.0,43,0.00,,---,0.00,VWS V14.01,2013-06-02 23:20:00,
2013-06-02 18:25:00,68.2,43.0,30.02,WNW,296,1.0,2.0,40,0.00,,---,0.00,VWS V14.01,2013-06-02 23:25:00,
2013-06-02 18:30:00,67.8,42.6,30.02,WNW,299,0.0,1.0,40,0.00,,---,0.00,VWS V14.01,2013-06-02 23:30:00,
2013-06-02 18:35:00,67.3,42.8,30.01,WSW,249,1.0,3.0,41,0.00,,---,0.00,VWS V14.01,2013-06-02 23:35:00,
2013-06-02 18:40:00,67.1,43.9,30.01,WNW,298,0.0,3.0,43,0.00,,---,0.00,VWS V14.01,2013-06-02 23:40:00,
2013-06-02 18:45:00,67.1,43.3,30.01,WNW,298,0.0,1.0,42,0.00,,---,0.00,VWS V14.01,2013-06-02 23:45:00,
2013-06-02 18:50:00,66.9,43.1,30.01,NNW,331,1.0,1.0,42,0.00,,---,0.00,VWS V14.01,2013-06-02 23:50:00,
2013-06-02 18:55:00,66.8,41.1,30.02,NNE,31,2.0,3.0,39,0.00,,---,0.00,VWS V14.01,2013-06-02 23:55:00,
2013-06-02 19:00:00,66.7,43.5,30.02,WSW,248,1.0,2.0,43,0.00,,---,0.00,VWS V14.01,2013-06-03 00:00:00,
2013-06-02 19:05:00,66.7,42.3,30.02,NW,313,0.0,2.0,41,0.00,,---,0.00,VWS V14.01,2013-06-03 00:05:00,
2013-06-02 19:10:00,66.4,43.2,30.01,NW,315,0.0,2.0,43,0.00,,---,0.00,VWS V14.01,2013-06-03 00:10:00,
2013-06-02 19:15:00,66.2,42.5,30.02,NW,326,0.0,1.0,42,0.00,,---,0.00,VWS V14.01,2013-06-03 00:15:00,
2013-06-02 19:20:00,65.9,42.8,30.01,NW,325,0.0,1.0,43,0.00,,---,0.00,VWS V14.01,2013-06-03 00:20:00,
2013-06-02 19:25:00,65.5,43.0,30.01,NW,325,0.0,1.0,44,0.00,,---,0.00,VWS V14.01,2013-06-03 00:25:00,
2013-06-02 19:30:00,65.2,42.8,30.02,NW,326,0.0,0.0,44,0.00,,---,0.00,VWS V14.01,2013-06-03 00:30:00,
2013-06-02 19:35:00,65.1,42.1,30.02,NNW,333,0.0,1.0,43,0.00,,---,0.00,VWS V14.01,2013-06-03 00:35:00,
2013-06-02 19:40:00,65.1,42.7,30.01,NNW,332,0.0,1.0,44,0.00,,---,0.00,VWS V14.01,2013-06-03 00:40:00,
2013-06-02 19:45:00,65.0,42.0,30.01,NNW,332,0.0,0.0,43,0.00,,---,0.00,VWS V14.01,2013-06-03 00:45:00,
2013-06-02 19:50:00,65.5,43.0,30.01,NNW,332,0.0,0.0,44,0.00,,---,0.00,VWS V14.01,2013-06-03 00:50:00,
2013-06-02 19:55:00,65.9,43.4,30.01,NW,311,0.0,0.0,44,0.00,,---,0.00,VWS V14.01,2013-06-03 00:55:00,
2013-06-02 20:00:00,65.6,43.1,30.01,NW,312,0.0,0.0,44,0.00,,---,0.00,VWS V14.01,2013-06-03 01:00:00,
2013-06-02 20:05:00,65.2,42.8,30.02,NW,305,0.0,0.0,44,0.00,,---,0.00,VWS V14.01,2013-06-03 01:05:00,
2013-06-02 20:10:00,64.7,42.3,30.01,WNW,301,0.0,0.0,44,0.00,,---,0.00,VWS V14.01,2013-06-03 01:10:00,
2013-06-02 20:15:00,64.1,42.9,30.01,WNW,300,0.0,0.0,46,0.00,,---,0.00,VWS V14.01,2013-06-03 01:15:00,
2013-06-02 20:20:00,63.5,42.4,30.01,WNW,300,0.0,1.0,46,0.00,,---,0.00,VWS V14.01,2013-06-03 01:20:00,
2013-06-02 20:25:00,62.9,42.9,30.01,WNW,300,0.0,1.0,48,0.00,,---,0.00,VWS V14.01,2013-06-03 01:25:00,
2013-06-02 20:30:00,62.4,42.5,30.01,WNW,301,0.0,2.0,48,0.00,,---,0.00,VWS V14.01,2013-06-03 01:30:00,
2013-06-02 20:35:00,62.1,42.7,30.01,WNW,301,0.0,2.0,49,0.00,,---,0.00,VWS V14.01,2013-06-03 01:35:00,
2013-06-02 20:40:00,61.7,42.4,30.02,WNW,300,0.0,2.0,49,0.00,,---,0.00,VWS V14.01,2013-06-03 01:40:00,
2013-06-02 20:45:00,61.5,42.2,30.02,WNW,297,0.0,2.0,49,0.00,,---,0.00,VWS V14.01,2013-06-03 01:45:00,
2013-06-02 20:50:00,61.2,43.0,30.02,WNW,298,0.0,2.0,51,0.00,,---,0.00,VWS V14.01,2013-06-03 01:50:00,
2013-06-02 20:55:00,60.7,42.5,30.02,WNW,297,0.0,2.0,51,0.00,,---,0.00,VWS V14.01,2013-06-03 01:55:00,
2013-06-02 21:00:00,60.3,42.6,30.01,WNW,298,0.0,0.0,52,0.00,,---,0.00,VWS V14.01,2013-06-03 02:00:00,
2013-06-02 21:05:00,59.9,42.7,30.01,WNW,296,0.0,1.0,53,0.00,,---,0.00,VWS V14.01,2013-06-03 02:05:00,
2013-06-02 21:10:00,59.6,42.5,30.01,WNW,297,0.0,1.0,53,0.00,,---,0.00,VWS V14.01,2013-06-03 02:10:00,
2013-06-02 21:15:00,59.4,42.8,30.02,WNW,298,0.0,0.0,54,0.00,,---,0.00,VWS V14.01,2013-06-03 02:15:00,
2013-06-02 21:19:00,59.1,43.0,30.02,WNW,298,0.0,0.0,55,0.00,,---,0.00,VWS V14.01,2013-06-03 02:19:00,
2013-06-02 21:24:00,58.8,43.2,30.02,WNW,298,0.0,0.0,56,0.00,,---,0.00,VWS V14.01,2013-06-03 02:24:00,
2013-06-02 21:29:00,58.5,42.9,30.02,WNW,298,0.0,0.0,56,0.00,,---,0.00,VWS V14.01,2013-06-03 02:29:00,
2013-06-02 21:34:00,58.2,43.1,30.02,WNW,298,0.0,0.0,57,0.00,,---,0.00,VWS V14.01,2013-06-03 02:34:00,
2013-06-02 21:39:00,57.9,43.2,30.02,WNW,298,0.0,0.0,58,0.00,,---,0.00,VWS V14.01,2013-06-03 02:39:00,
2013-06-02 21:44:00,57.6,43.0,30.02,WNW,298,0.0,0.0,58,0.00,,---,0.00,VWS V14.01,2013-06-03 02:44:00,
2013-06-02 21:49:00,57.2,43.0,30.02,WNW,298,0.0,0.0,59,0.00,,---,0.00,VWS V14.01,2013-06-03 02:49:00,
2013-06-02 21:54:00,56.8,43.1,30.03,WNW,297,0.0,0.0,60,0.00,,---,0.00,VWS V14.01,2013-06-03 02:54:00,
2013-06-02 21:59:00,56.4,42.7,30.03,WNW,298,0.0,0.0,60,0.00,,---,0.00,VWS V14.01,2013-06-03 02:59:00,
2013-06-02 22:04:00,55.9,42.7,30.03,WNW,298,0.0,0.0,61,0.00,,---,0.00,VWS V14.01,2013-06-03 03:04:00,
2013-06-02 22:09:00,55.5,42.7,30.03,WNW,298,0.0,0.0,62,0.00,,---,0.00,VWS V14.01,2013-06-03 03:09:00,
2013-06-02 22:14:00,55.1,42.8,30.03,WNW,298,0.0,0.0,63,0.00,,---,0.00,VWS V14.01,2013-06-03 03:14:00,
2013-06-02 22:19:00,54.8,43.3,30.03,WNW,298,0.0,0.0,65,0.00,,---,0.00,VWS V14.01,2013-06-03 03:19:00,
2013-06-02 22:24:00,54.5,43.4,30.03,WNW,298,0.0,0.0,66,0.00,,---,0.00,VWS V14.01,2013-06-03 03:24:00,
2013-06-02 22:29:00,54.2,43.5,30.03,WNW,298,0.0,0.0,67,0.00,,---,0.00,VWS V14.01,2013-06-03 03:29:00,
2013-06-02 22:34:00,54.0,43.3,30.03,WNW,297,0.0,0.0,67,0.00,,---,0.00,VWS V14.01,2013-06-03 03:34:00,
2013-06-02 22:39:00,53.7,43.4,30.03,WNW,298,0.0,0.0,68,0.00,,---,0.00,VWS V14.01,2013-06-03 03:39:00,
2013-06-02 22:44:00,53.6,43.7,30.03,WNW,298,0.0,0.0,69,0.00,,---,0.00,VWS V14.01,2013-06-03 03:44:00,
2013-06-02 22:49:00,53.4,43.5,30.03,WNW,297,0.0,0.0,69,0.00,,---,0.00,VWS V14.01,2013-06-03 03:49:00,
2013-06-02 22:54:00,53.0,43.1,30.03,WNW,297,0.0,0.0,69,0.00,,---,0.00,VWS V14.01,2013-06-03 03:54:00,
2013-06-02 22:59:00,52.6,43.1,30.03,WNW,298,0.0,0.0,70,0.00,,---,0.00,VWS V14.01,2013-06-03 03:59:00,
2013-06-02 23:01:00,52.5,43.0,30.03,WNW,298,0.0,0.0,70,0.00,,---,0.00,VWS V14.01,2013-06-03 04:01:00,
2013-06-02 23:06:00,52.1,42.6,30.03,WNW,298,0.0,0.0,70,0.00,,---,0.00,VWS V14.01,2013-06-03 04:06:00,
2013-06-02 23:11:00,51.8,43.1,30.03,WNW,298,0.0,0.0,72,0.00,,---,0.00,VWS V14.01,2013-06-03 04:11:00,
2013-06-02 23:16:00,51.5,42.8,30.03,WNW,298,0.0,0.0,72,0.00,,---,0.00,VWS V14.01,2013-06-03 04:16:00,
2013-06-02 23:21:00,51.5,43.5,30.03,WNW,298,0.0,0.0,74,0.00,,---,0.00,VWS V14.01,2013-06-03 04:21:00,
2013-06-02 23:27:00,51.6,43.6,30.03,WNW,298,0.0,0.0,74,0.00,,---,0.00,VWS V14.01,2013-06-03 04:27:00,
2013-06-02 23:32:00,51.5,43.5,30.04,WNW,297,0.0,0.0,74,0.00,,---,0.00,VWS V14.01,2013-06-03 04:32:00,
2013-06-02 23:37:00,51.3,43.3,30.03,WNW,298,0.0,0.0,74,0.00,,---,0.00,VWS V14.01,2013-06-03 04:37:00,
2013-06-02 23:42:00,51.1,43.1,30.04,WNW,298,0.0,0.0,74,0.00,,---,0.00,VWS V14.01,2013-06-03 04:42:00,
2013-06-02 23:47:00,51.0,43.4,30.03,WNW,298,0.0,0.0,75,0.00,,---,0.00,VWS V14.01,2013-06-03 04:47:00,
2013-06-02 23:52:00,51.0,43.7,30.04,WNW,298,0.0,0.0,76,0.00,,---,0.00,VWS V14.01,2013-06-03 04:52:00,
2013-06-02 23:57:00,50.8,43.5,30.04,WNW,297,0.0,0.0,76,0.00,,---,0.00,VWS V14.01,2013-06-03 04:57:00,